Weather History for KMCK - August, 2013

Change the Weather History Date:

Sunday, August 18, 2013

  Actual Average Record
Temperature  
Mean Temperature 74 °F 74 °F  
Max Temperature 86 °F 88 °F 105 °F (1983)
Min Temperature 62 °F 60 °F 50 °F (1929)
Cooling Degree Days 8    
Growing Degree Days 23 (Base 50)    
Moisture  
Dew Point 62 °F    
Average Humidity 71    
Maximum Humidity 93    
Minimum Humidity 46    
Precipitation  
Precipitation 0.00 in 0.11 in 0.76 in (1961)
Month to date precipitation 1.04 2.08  
Year to date precipitation 8.72 16.65  
Sea Level Pressure  
Sea Level Pressure 30.02 in    
Wind  
Wind Speed 9 mph (SSE)    
Max Wind Speed 15 mph    
Max Gust Speed 22 mph    
Visibility 8 miles    
Events      
T = Trace of Precipitation, MM = Missing Value Source: NWS Daily Summary

Daily Weather History Graph

Daily Weather History Graph

Search for Another Location

Airport or City:

Trip Planner

Search our weather history database for the weather conditions in past years. The results will help you decide how hot, cold, wet, or windy it might be!

Date:

Astronomy

Aug. 18, 2013 Rise Set
Actual Time 6:56 AM CDT 8:34 PM CDT
Civil Twilight 6:27 AM CDT 9:03 PM CDT
Nautical Twilight 5:53 AM CDT 9:38 PM CDT
Astronomical Twilight 5:15 AM CDT 10:15 PM CDT
Moon 6:42 PM CDT (8/18) 4:08 AM CDT (8/18)
Length of Visible Light 14h 35m
Length of Day
13h 37m
Waxing Gibbous, 92% of the Moon is Illuminated
Aug 18
Waxing Gibbous
Aug 20
Full
Aug 28
Last Quarter
Sep 5
New
Sep 12
First Quarter

Hourly Weather History & Observations

Time (CDT) Temp. Heat Index Dew Point Humidity Pressure Visibility Wind Dir Wind Speed Gust Speed Precip Events Conditions
12:53 AM 69.1 °F - 62.1 °F 78% 30.05 in 9.0 mi SE 9.2 mph - N/A   Overcast
1:53 AM 68.0 °F - 62.1 °F 81% 30.06 in 9.0 mi SSE 8.1 mph - N/A   Mostly Cloudy
2:53 AM 66.9 °F - 62.1 °F 84% 30.04 in 9.0 mi SSE 9.2 mph - N/A   Partly Cloudy
3:53 AM 64.9 °F - 61.0 °F 87% 30.04 in 8.0 mi SE 3.5 mph - N/A   Clear
4:53 AM 66.0 °F - 61.0 °F 84% 30.03 in 8.0 mi SSE 6.9 mph - N/A   Overcast
5:53 AM 64.0 °F - 61.0 °F 90% 30.04 in 7.0 mi SSE 6.9 mph - N/A   Mostly Cloudy
6:53 AM 62.1 °F - 60.1 °F 93% 30.04 in 5.0 mi ESE 3.5 mph - N/A   Clear
7:53 AM 63.0 °F - 60.1 °F 90% 30.05 in 3.0 mi ESE 3.5 mph - N/A   Partly Cloudy
8:53 AM 66.9 °F - 62.1 °F 84% 30.05 in 5.0 mi SE 5.8 mph - N/A   Haze
9:53 AM 70.0 °F - 62.1 °F 76% 30.04 in 7.0 mi South 15.0 mph - N/A   Overcast
10:53 AM 71.1 °F - 62.1 °F 73% 30.04 in 8.0 mi South 11.5 mph - N/A   Overcast
11:53 AM 71.1 °F - 61.0 °F 70% 30.05 in 8.0 mi SSE 11.5 mph - N/A   Overcast
12:53 PM 72.0 °F - 62.1 °F 71% 30.04 in 8.0 mi South 10.4 mph - N/A   Overcast
1:53 PM 73.0 °F - 61.0 °F 66% 30.03 in 9.0 mi SSE 11.5 mph - N/A   Overcast
2:53 PM 77.0 °F - 63.0 °F 62% 30.01 in 8.0 mi South 11.5 mph 20.7 mph N/A   Overcast
3:11 PM 78.8 °F - 62.6 °F 57% 30.06 in 9.0 mi South 11.5 mph - N/A   Overcast
3:53 PM 82.0 °F 83.1 °F 63.0 °F 52% 29.97 in 10.0 mi SSE 11.5 mph 21.9 mph N/A   Scattered Clouds
4:53 PM 84.0 °F 84.9 °F 63.0 °F 49% 29.96 in 10.0 mi South 11.5 mph 21.9 mph N/A   Clear
5:53 PM 84.9 °F 85.4 °F 62.1 °F 46% 29.95 in 10.0 mi South 15.0 mph - N/A   Clear
6:53 PM 82.0 °F 83.1 °F 63.0 °F 52% 29.95 in 10.0 mi South 9.2 mph - N/A   Clear
7:53 PM 80.1 °F 81.5 °F 63.0 °F 56% 29.96 in 10.0 mi SE 9.2 mph - N/A   Partly Cloudy
8:53 PM 77.0 °F - 62.1 °F 60% 29.99 in 10.0 mi SE 10.4 mph - N/A   Mostly Cloudy
9:53 PM 73.9 °F - 63.0 °F 68% 30.01 in 10.0 mi SE 9.2 mph - N/A   Partly Cloudy
10:53 PM 73.0 °F - 63.0 °F 71% 30.04 in 10.0 mi SSE 5.8 mph - N/A   Overcast
11:53 PM 70.0 °F - 63.0 °F 78% 30.03 in 10.0 mi SSE 6.9 mph - N/A   Scattered Clouds